Location: Unspecified
(0.0000°N, 0.0000°E)
Time: 15:43:13
(UTC+00:00)

Hubble Space Telescope - Pass Details

Date: 09 February 2018
Orbit: 537 x 541 km, 28.5° (Epoch: 19 February)

Event Time Altitude Azimuth Distance (km) Brightness Sun altitude
Rises 19:38:20 0° 277° (W) 2,669 5.5 -20.3°
Reaches altitude 10° 19:40:56 10° 262° (W) 1,779 4.6 -21.0°
Maximum altitude 19:44:14 23° 209° (SSW) 1,161 2.9 -21.7°
Enters shadow 19:47:02 12° 160° (SSE) 1,633 3.2 -22.4°
